This demonstration page uses our WeatherBlox Daily Observations layout. Learn more.

Hourly Observations for August 3, 2017

Temp ( °F °C ) Dew Point ( °F °C ) Humidity (%) Winds ( mph kmh ) Pressure ( in mb ) Visibility ( mi km ) Precip ( " mm )
12:54 am 00:54 Mostly Clear 75 23.9 69 20.6 82 82 S 3 6 29.99 1016 9 14.48406 0 0
1:54 am 01:54 Clear 74 23.3 69 20.6 85 85 WSW 5 7 29.99 1016 9 14.48406 0 0
2:54 am 02:54 Clear 73 22.8 68 20 84 84 WNW 6 9 29.99 1016 10 16.0934 0 0
3:54 am 03:54 Partly Cloudy 70 21.1 63 17.2 79 79 W 14 22 30 1016 10 16.0934 0 0.0254
4:54 am 04:54 Clear 67 19.4 59 15 76 76 W 15 24 30.02 1017 10 16.0934 0 0
5:10 am 05:10 Mostly Cloudy 68 20 59 15 73 73 W 15 24 30.03 1017 10 16.0934 0 0
5:54 am 05:54 Mostly Cloudy 68 20 61 16.1 78 78 W 12 19 30.03 1017 10 16.0934 0 0
6:29 am 06:29 Cloudy 66 18.9 60 15.6 81 81 WNW 20 31 30.03 1017 10 16.0934 0 0
6:54 am 06:54 Cloudy 66 18.9 60 15.6 81 81 NW 14 22 30.04 1017 10 16.0934 0 0
7:16 am 07:16 Cloudy 66 18.9 59 15 78 78 NW 17 28 30.06 1018 10 16.0934 0 0
7:54 am 07:54 Cloudy 67 19.4 58 14.4 73 73 NW 21 33 30.06 1018 10 16.0934 0 0
8:10 am 08:10 Mostly Cloudy 67 19.4 58 14.4 73 73 NW 16 26 30.06 1018 10 16.0934 0 0
8:24 am 08:24 Partly Cloudy 68 20 58 14.4 70 70 NW 17 28 30.06 1018 10 16.0934 0 0
8:54 am 08:54 Mostly Sunny 69 20.6 58 14.4 68 68 NNW 20 31 30.06 1018 10 16.0934 0 0
9:54 am 09:54 Mostly Sunny 71 21.7 57 13.9 61 61 NNW 20 31 30.06 1018 10 16.0934 0 0
10:23 am 10:23 Mostly Cloudy 71 21.7 57 13.9 61 61 N 20 31 30.06 1018 10 16.0934 0 0
10:33 am 10:33 Partly Cloudy 71 21.7 57 13.9 61 61 NNW 18 30 30.06 1018 10 16.0934 0 0
10:54 am 10:54 Mostly Sunny 72 22.2 58 14.4 61 61 N 21 33 30.07 1018 10 16.0934 0 0
11:54 am 11:54 Mostly Sunny 73 22.8 56 13.3 55 55 N 21 33 30.07 1018 10 16.0934 0 0
12:54 pm 12:54 Partly Cloudy 75 23.9 58 14.4 55 55 N 13 20 30.08 1019 10 16.0934 0 0
1:54 pm 13:54 Mostly Cloudy 77 25 56 13.3 48 48 NNW 15 24 30.07 1018 10 16.0934 0 0
2:54 pm 14:54 Partly Cloudy 76 24.4 57 13.9 52 52 NNW 13 20 30.07 1018 10 16.0934 0 0
3:54 pm 15:54 Mostly Cloudy 74 23.3 56 13.3 54 54 NNE 15 24 30.07 1018 10 16.0934 0 0
4:54 pm 16:54 Mostly Sunny 76 24.4 55 12.8 48 48 N 17 28 30.06 1018 10 16.0934 0 0
5:54 pm 17:54 Mostly Cloudy 74 23.3 56 13.3 54 54 N 15 24 30.07 1018 10 16.0934 0 0
6:54 pm 18:54 Sunny 73 22.8 55 12.8 53 53 N 18 30 30.07 1018 10 16.0934 0 0
7:54 pm 19:54 Mostly Cloudy 70 21.1 55 12.8 59 59 N 13 20 30.09 1019 10 16.0934 0 0
8:54 pm 20:54 Clear 65 18.3 54 12.2 68 68 N 10 17 30.11 1020 10 16.0934 0 0
9:54 pm 21:54 Clear 63 17.2 54 12.2 73 73 N 8 13 30.14 1021 10 16.0934 0 0
10:54 pm 22:54 Clear 60 15.6 53 11.7 78 78 N 7 11 30.16 1021 10 16.0934 0 0
11:54 pm 23:54 Clear 57 13.9 52 11.1 83 83 N 6 9 30.16 1022 10 16.0934 0 0

Powered by AerisWeather